Content
SEND FEEDBACK

Daily
Averages
Monthly
Summary
United States of America

ANN ARBOR, MICHIGAN


Home > North America > United States > Michigan
Elevation: 759 feet     Latitude: 42 17N     Longitude: 083 43W

WEATHER
 
SELECT A DAY
Number of Records: 206,302;   Date Range: 1/1/95 - 9/30/14
 
SHARE

PRINT THIS DATA

[ ← Previous Day ]
WEATHER ALMANAC - FEBRUARY 6, 2013
[ Next Day → ]
[ °C ]   °F
Weather ElementAverageHighLow
Temperature21.6 °F28 °F (1:53 pm)5 °F (7:53 am)
Dewpoint13.1 °F19 °F (1:53 am)1.9 °F (7:53 am)
Humidity70.7 %92 % (6:53 am)56 % (12:53 pm)
Barometer30.22 in30.33 in (7:53 pm)30.01 in (2:13 am)
Wind Speed4.3 mph13.8 mph (2:13 am)
Wind Gust20.7 mph (1:53 am)
Weather ElementAverage
Visibility9.8 mi
Wind DirectionSSE (155.6 °)

Weather ElementTotal
Precipitation---
Heating Degree Days48.5 (Base 65)
Averaged from 25 records on February 6, 2013
WEATHER CONDITIONS BREAKOUT
WIND DIRECTION BREAKOUT
WEATHER BY HOUR - FEBRUARY 6, 2013
[ °C ]   °F
Local TimeTemperatureDewpointHumidityBarometerVisibilityWind DirectionWind SpeedGust SpeedPrecipitationEventsConditions
1:53 AM25.0 °F19.0 °F78 %30.04 in7.0 miNNW (330°)12.7 mph20.7 mph0.00 inSnowLight Snow
2:13 AM24.8 °F17.6 °F74 %30.01 in9.0 miNNW (330°)13.8 mph0.00 inOvercast
2:53 AM24.1 °F14.0 °F65 %30.08 in10.0 miNNW (330°)9.2 mph0.00 inOvercast
3:17 AM24.8 °F17.6 °F74 %30.06 in10.0 miNorth (350°)9.2 mphOvercast
3:49 AM21.2 °F14.0 °F74 %30.07 in10.0 miNNW (340°)6.9 mphScattered Clouds
3:53 AM21.9 °F14.0 °F72 %30.11 in10.0 miNNW (340°)5.8 mphPartly Cloudy
4:53 AM17.1 °F12.0 °F81 %30.14 in10.0 miWNW (290°)5.8 mphOvercast
5:53 AM16.0 °F10.9 °F81 %30.17 in10.0 miNW (310°)3.5 mphClear
6:53 AM9.0 °F7.0 °F92 %30.19 in10.0 miCalmClear
7:53 AM5.0 °F1.9 °F87 %30.25 in9.0 miCalmClear
8:53 AM10.0 °F8.1 °F92 %30.26 in10.0 miCalmClear
9:53 AM19.9 °F10.9 °F68 %30.27 in10.0 miCalmClear
10:53 AM25.0 °F14.0 °F63 %30.28 in10.0 miCalmClear
11:53 AM27.0 °F15.1 °F61 %30.28 in10.0 miCalmClear
12:53 PM27.0 °F12.9 °F56 %30.27 in10.0 miWest (270°)5.8 mphClear
1:53 PM28.0 °F16.0 °F61 %30.28 in10.0 miWest (270°)6.9 mphClear
2:53 PM28.0 °F16.0 °F61 %30.27 in10.0 miCalmClear
3:53 PM28.0 °F17.1 °F63 %30.27 in10.0 miSouth (190°)8.1 mphClear
4:53 PM27.0 °F15.1 °F61 %30.27 in10.0 miSouth (180°)9.2 mphClear
5:53 PM25.0 °F12.0 °F58 %30.30 in10.0 miSSW (200°)5.8 mphClear
6:53 PM24.1 °F12.0 °F60 %30.32 in10.0 miCalmClear
7:53 PM19.0 °F12.0 °F74 %30.33 in10.0 miCalmClear
8:53 PM19.9 °F10.9 °F68 %30.31 in10.0 miSSE (160°)4.6 mphClear
9:53 PM19.9 °F12.9 °F74 %30.29 in10.0 miCalmClear
11:53 PM24.1 °F15.1 °F69 %30.27 in10.0 miCalmOvercast
Hourly data recorded from KARB, located miles away from Ann Arbor, Michigan







STORIES FROM OUR PARTNERS